NOAA 16 DEB

Satellite information

Favourite Embed

Satellite Type and Status

DEBRISIN ORBIT

Key statistics

Satellite NOAA 16 DEB at a glance.

Uptime

9115

Days in orbit

Revolutions

≈ 14.3

Per day

Orbit

SSO

Sun Synchronous Orbit

Inclination

98.9

Latest

Satellite identification and parameters

Extended collection of information and parameters for NOAA 16 DEB.

Object identification

Identified? True

Debris? True

Object name: NOAA 16 DEB

International designator: 2000-055JD

Object number (NORAD): 41360

Object ID (CCSDS): 41360

Country: UNITED STATES OF AMERICA (US)

Current information (Y/N): Y

RCS size: SMALL

Orbital parameters

Period: 100.713 minutes

Inclination: 98.8826 deg

SMA: 7170.542 km

Apoapsis: 810.337 km

Periapsis: 774.477 km

RAAN: 1.8878 deg

Eccentricy: 0.0025005

Argument of periapsis: 127.2604 deg

Mean anomaly: 233.0863 deg

Mean motion: 14.29798415 rev/day

Mean motion (dot): 0.00006527 rev/day2

B* drag term: 0.0025473687 1/REarth

Two-line elements (TLE)

Creation date: Sept. 4, 2025, 10:13 a.m.

Reference frame: TEME

Reference center: EARTH

Epoch: Sept. 4, 2025, 6:44 a.m. UTC

TLE line 0: 0 NOAA 16 DEB

TLE line 1: 1 41360U 00055JD 25247.28065539 .00006527 00000-0 25474-2 0 9996

TLE line 2: 2 41360 98.8826 1.8878 0025005 127.2604 233.0863 14.29798415496322

Live tracking on map

Real-time ground track for satellite NOAA 16 DEB.

In-orbit conjunctions

A list of the most updated potential collisions computed for object NOAA 16 DEB.

Target Orbit TCA Probability of collision Miss distance Type
NOAA 16 DEB SSO 2025-06-20 20:12:26 0.000172858 229.0 (m) DEBRIS
CZ-6A DEB LEO 2025-02-21 00:27:52 0.0002716961 248.0 (m) DEBRIS
CZ-6A DEB LEO 2024-12-20 07:02:58 0.0001323766 293.0 (m) DEBRIS

Associated space launch

The NOAA K, L and M POES satellites begin the fifth generation of improved environmental monitoring in support of NOAA missions. The instrument payload has significant improvements and additions/deletions. The instrument changes have effected the spacecraft subsystems and data formats.

NOAA 16 DEB was lifted into orbit during the mission ‘Titan II SLV | NOAA 16’, on board a Titan II SLV space rocket.

The launch took place on Sept. 21, 2000, 10:22 a.m. from Space Launch Complex 4W.

For more information about the launch, click the button.

Launch to space Titan II SLV | NOAA 16
Titan II SLV | NOAA 16

Agency: N/A

Status: Launch Successful

Launch date: Sept. 21, 2000, 10:22 a.m. UTC

Rocket: Titan II SLV

Launch pad: Space Launch Complex 4W

Location: Vandenberg SFB, CA, USA

...

Latest news about this satellite

There are no fresh news available about this satellite. Check back as we update our databases every day.


Newsletter sign-up

Weekly statistics, charts and insights to help you stay on top of the space industry.